GW6017 Weather Reports


time (UTC)temp
C
wind
direction
speed
KPH
gust
KPH
rain 1hr
cm
rain 24hr
cm
rain mn
cm
humidity
%
barometer
mb
20260510045018 23 23 14.5 25.7 0.00 0.00 0.00 23 1018.6
20260510044518 22 45 14.5 29.0 0.00 0.00 0.00 23 1018.7
20260510044018 23 45 20.9 37.0 0.00 0.00 0.00 23 1018.8
20260510043539 23 45 17.7 27.4 0.00 0.00 0.00 23 1018.8
20260510043009 22 45 17.7 29.0 0.00 0.00 0.00 24 1018.9
20260510042518 22 45 19.3 32.2 0.00 0.00 0.00 24 1018.9
20260510042018 22 45 17.7 32.2 0.00 0.00 0.00 24 1019.1
20260510041518 22 45 19.3 29.0 0.00 0.00 0.00 24 1019.3
20260510041018 22 45 20.9 32.2 0.00 0.00 0.00 24 1019.4
20260510040518 22 45 20.9 30.6 0.00 0.00 0.00 25 1019.4
20260510040007 22 45 20.9 37.0 0.00 0.00 0.00 25 1019.4
20260510035518 22 45 17.7 30.6 0.00 0.00 0.00 24 1019.8
20260510035018 22 45 22.5 33.8 0.00 0.00 0.00 25 1019.8
20260510034518 22 45 22.5 33.8 0.00 0.00 0.00 26 1019.9
20260510034018 22 23 20.9 30.6 0.00 0.00 0.00 25 1019.9
20260510033518 22 45 24.1 37.0 0.00 0.00 0.00 25 1019.9
20260510033007 22 45 24.1 33.8 0.00 0.00 0.00 25 1019.9
20260510032518 22 23 24.1 35.4 0.00 0.00 0.00 26 1020.1
20260510032018 22 45 22.5 32.2 0.00 0.00 0.00 26 1020.2
20260510031519 22 23 22.5 30.6 0.00 0.00 0.00 26 1020.3
20260510031018 21 45 22.5 32.2 0.00 0.00 0.00 26 1020.4
20260510030518 21 45 25.7 33.8 0.00 0.00 0.00 27 1020.5
20260510030026 21 23 27.4 38.6 0.00 0.00 0.00 27 1020.6
20260510025538 21 23 24.1 33.8 0.00 0.00 0.00 27 1020.8
20260510025018 21 23 25.7 35.4 0.00 0.00 0.00 28 1020.8
20260510024538 21 23 24.1 33.8 0.00 0.00 0.00 28 1020.9
20260510024018 21 45 25.7 35.4 0.00 0.00 0.00 29 1020.9
20260510023518 21 45 25.7 35.4 0.00 0.00 0.00 29 1020.7
20260510023010 21 45 24.1 33.8 0.00 0.00 0.00 29 1020.8
20260510022519 20 45 27.4 32.2 0.00 0.00 0.00 30 1020.9
20260510022039 20 45 25.7 35.4 0.00 0.00 0.00 31 1020.9
20260510021517 20 45 27.4 33.8 0.00 0.00 0.00 31 1020.9
20260510021017 20 45 24.1 33.8 0.00 0.00 0.00 31 1021.1
20260510020518 20 45 25.7 33.8 0.00 0.00 0.00 32 1021.1
20260510020008 20 45 24.1 35.4 0.00 0.00 0.00 33 1021.0
20260510015518 18 45 25.7 32.2 0.00 0.00 0.00 34 1020.9
20260510015017 18 45 22.5 32.2 0.00 0.00 0.00 35 1020.9
20260510014518 18 45 27.4 37.0 0.00 0.00 0.00 36 1020.9
20260510014017 18 45 24.1 35.4 0.00 0.00 0.00 36 1020.8
20260510013518 18 45 25.7 35.4 0.00 0.00 0.00 37 1020.7
20260510013007 17 45 27.4 37.0 0.00 0.00 0.00 37 1020.7
20260510012538 17 45 29.0 37.0 0.00 0.00 0.00 38 1020.7
20260510012018 17 45 29.0 37.0 0.00 0.00 0.00 38 1020.5
20260510011517 17 45 30.6 40.2 0.00 0.00 0.00 38 1020.5
20260510011017 17 45 27.4 37.0 0.00 0.00 0.00 39 1020.9
20260510010518 17 45 29.0 37.0 0.00 0.00 0.00 39 1020.9
20260510010006 17 45 25.7 37.0 0.00 0.00 0.00 40 1020.9
20260510005520 16 45 25.7 35.4 0.00 0.00 0.00 40 1020.7
20260510005019 16 45 22.5 30.6 0.00 0.00 0.00 42 1020.8
20260510004517 16 45 22.5 32.2 0.00 0.00 0.00 42 1020.7
20260510004017 15 45 25.7 33.8 0.00 0.00 0.00 44 1020.6
20260510003517 15 68 24.1 33.8 0.00 0.00 0.00 44 1020.7
20260510003007 15 45 22.5 32.2 0.00 0.00 0.00 44 1020.7
20260510002517 15 45 22.5 30.6 0.00 0.00 0.00 45 1020.8
20260510002017 15 45 24.1 33.8 0.00 0.00 0.00 45 1020.7
20260510001538 14 45 22.5 30.6 0.00 0.00 0.00 46 1020.7
20260510001018 14 68 24.1 32.2 0.00 0.00 0.00 47 1020.6
20260510000517 13 68 24.1 30.6 0.00 0.00 0.00 48 1020.7
20260510000007 13 68 25.7 35.4 0.00 0.00 0.00 48 1020.6
20260509235517 13 68 25.7 33.8 0.00 0.00 0.00 49 1020.5
20260509235040 13 68 24.1 33.8 0.00 0.00 0.00 49 1020.5
20260509234538 13 68 22.5 30.6 0.00 0.00 0.00 50 1020.6
20260509234017 12 68 22.5 32.2 0.00 0.00 0.00 51 1020.5
20260509233517 12 68 19.3 29.0 0.00 0.00 0.00 52 1020.4
20260509233006 12 68 17.7 22.5 0.00 0.00 0.00 53 1020.5
20260509232517 11 68 17.7 22.5 0.00 0.00 0.00 54 1020.5
20260509232017 11 68 17.7 22.5 0.00 0.00 0.00 54 1020.3
20260509231558 11 68 17.7 22.5 0.00 0.00 0.00 54 1020.3
20260509231017 11 68 17.7 22.5 0.00 0.00 0.00 55 1020.1
20260509230517 11 68 17.7 22.5 0.00 0.00 0.00 55 1020.1
20260509230008 11 68 19.3 22.5 0.00 0.00 0.00 55 1020.0
20260509225517 11 68 19.3 25.7 0.00 0.00 0.00 56 1020.0
20260509225018 11 68 19.3 27.4 0.00 0.00 0.00 55 1019.9
20260509224538 10 45 19.3 24.1 0.00 0.00 0.00 56 1019.9
20260509224017 10 45 17.7 24.1 0.00 0.00 0.00 56 1019.9
20260509223538 10 45 17.7 20.9 0.00 0.00 0.00 56 1020.1
20260509223007 10 45 16.1 19.3 0.00 0.00 0.00 55 1020.0
20260509222517 11 68 17.7 22.5 0.00 0.00 0.00 55 1020.1
20260509222017 10 68 14.5 17.7 0.00 0.00 0.00 55 1020.1
20260509221517 10 68 16.1 19.3 0.00 0.00 0.00 55 1020.0
20260509221018 11 68 16.1 19.3 0.00 0.00 0.00 53 1019.9
20260509220519 11 45 16.1 20.9 0.00 0.00 0.00 52 1019.9
20260509220006 11 45 14.5 19.3 0.00 0.00 0.00 52 1019.9
20260509215519 11 68 16.1 20.9 0.00 0.00 0.00 52 1019.9
20260509215022 11 68 16.1 20.9 0.00 0.00 0.00 52 1019.8
20260509214519 11 68 17.7 22.5 0.00 0.00 0.00 52 1019.8
20260509214018 11 68 17.7 25.7 0.00 0.00 0.00 51 1019.7
20260509213519 12 68 17.7 22.5 0.00 0.00 0.00 51 1019.8
20260509213008 11 68 16.1 20.9 0.00 0.00 0.00 51 1019.8
20260509212519 12 68 16.1 22.5 0.00 0.00 0.00 51 1019.8
20260509212017 12 68 16.1 20.9 0.00 0.00 0.00 50 1019.9
20260509211520 12 68 19.3 24.1 0.00 0.00 0.00 50 1019.9
20260509211020 12 68 17.7 22.5 0.00 0.00 0.00 50 1019.8
20260509210519 12 68 17.7 22.5 0.00 0.00 0.00 50 1019.7
20260509210006 12 68 17.7 24.1 0.00 0.00 0.00 50 1019.8
20260509205519 12 68 19.3 22.5 0.00 0.00 0.00 50 1019.9
20260509205019 12 68 19.3 22.5 0.00 0.00 0.00 50 1019.8
20260509204519 11 68 17.7 24.1 0.00 0.00 0.00 51 1019.7
20260509204019 11 68 17.7 20.9 0.00 0.00 0.00 51 1019.8
20260509203519 11 45 16.1 19.3 0.00 0.00 0.00 51 1019.9
20260509203007 11 68 16.1 19.3 0.00 0.00 0.00 50 1019.8
20260509202520 12 68 17.7 22.5 0.00 0.00 0.00 49 1019.8
20260509202020 12 68 17.7 22.5 0.00 0.00 0.00 49 1019.8
20260509201519 12 68 17.7 25.7 0.00 0.00 0.00 48 1019.6
20260509201019 12 68 17.7 24.1 0.00 0.00 0.00 48 1019.7
20260509200519 12 68 19.3 32.2 0.00 0.00 0.00 46 1019.8
20260509200009 12 68 17.7 24.1 0.00 0.00 0.00 46 1019.8
20260509195519 13 68 19.3 25.7 0.00 0.00 0.00 46 1019.7
20260509195019 12 68 19.3 27.4 0.00 0.00 0.00 46 1019.7
20260509194520 12 68 19.3 27.4 0.00 0.00 0.00 46 1019.6
20260509194019 13 68 20.9 25.7 0.00 0.00 0.00 46 1019.6
20260509193519 12 68 19.3 25.7 0.00 0.00 0.00 46 1019.7
20260509193007 12 68 17.7 24.1 0.00 0.00 0.00 46 1019.7
20260509192519 12 68 17.7 22.5 0.00 0.00 0.00 47 1019.7
20260509192040 12 68 17.7 20.9 0.00 0.00 0.00 47 1019.7
20260509191521 12 68 17.7 22.5 0.00 0.00 0.00 47 1019.8
20260509191019 12 68 16.1 19.3 0.00 0.00 0.00 48 1019.8
20260509190518 12 68 16.1 19.3 0.00 0.00 0.00 48 1019.8
20260509190007 11 68 16.1 17.7 0.00 0.00 0.00 49 1019.7
20260509185519 11 68 12.9 17.7 0.00 0.00 0.00 50 1019.7
20260509185021 11 68 11.3 16.1 0.00 0.00 0.00 50 1019.8
20260509184518 11 68 11.3 16.1 0.00 0.00 0.00 49 1019.7
20260509184019 11 68 11.3 16.1 0.00 0.00 0.00 49 1019.7
20260509183519 11 68 11.3 16.1 0.00 0.00 0.00 49 1019.8
20260509183008 12 68 12.9 16.1 0.00 0.00 0.00 49 1019.8
20260509182518 12 68 12.9 17.7 0.00 0.00 0.00 48 1019.9
20260509182039 12 68 14.5 19.3 0.00 0.00 0.00 48 1019.8
20260509181518 12 68 14.5 17.7 0.00 0.00 0.00 47 1019.9
20260509181039 12 68 14.5 17.7 0.00 0.00 0.00 48 1019.9
20260509180518 12 68 14.5 17.7 0.00 0.00 0.00 48 1020.0
20260509180008 11 68 12.9 17.7 0.00 0.00 0.00 49 1020.0
20260509175621 11 45 11.3 14.5 0.00 0.00 0.00 50 1020.0
20260509175018 11 68 11.3 14.5 0.00 0.00 0.00 50 1020.0
20260509174518 11 45 11.3 14.5 0.00 0.00 0.00 49 1020.0
20260509174019 11 45 11.3 14.5 0.00 0.00 0.00 48 1020.0
20260509173519 11 45 9.7 14.5 0.00 0.00 0.00 48 1019.9
20260509173007 11 45 9.7 14.5 0.00 0.00 0.00 49 1019.9
20260509172519 11 45 11.3 16.1 0.00 0.00 0.00 49 1019.8
20260509172039 11 45 11.3 14.5 0.00 0.00 0.00 48 1019.9
20260509171519 11 45 12.9 16.1 0.00 0.00 0.00 48 1019.8
20260509171019 11 45 12.9 16.1 0.00 0.00 0.00 48 1019.8
20260509170518 11 45 11.3 14.5 0.00 0.00 0.00 48 1019.8
20260509170007 11 68 9.7 14.5 0.00 0.00 0.00 47 1019.8
20260509165518 11 45 11.3 14.5 0.00 0.00 0.00 47 1019.8
20260509165018 11 68 9.7 14.5 0.00 0.00 0.00 47 1019.8
20260509164519 12 68 11.3 14.5 0.00 0.00 0.00 47 1019.7
20260509164018 11 68 9.7 14.5 0.00 0.00 0.00 47 1019.9
20260509163518 11 68 9.7 14.5 0.00 0.00 0.00 47 1020.0
20260509163007 11 68 9.7 14.5 0.00 0.00 0.00 48 1019.9
20260509162519 11 68 9.7 14.5 0.00 0.00 0.00 48 1019.9
20260509162018 12 68 9.7 14.5 0.00 0.00 0.00 47 1019.9
20260509161518 12 45 9.7 14.5 0.00 0.00 0.00 46 1019.9
20260509161019 12 45 9.7 14.5 0.00 0.00 0.00 46 1019.9
20260509160518 11 45 9.7 14.5 0.00 0.00 0.00 47 1019.9
20260509160010 11 68 9.7 14.5 0.00 0.00 0.00 47 1020.0
20260509155518 11 45 9.7 12.9 0.00 0.00 0.00 48 1020.0
20260509155017 11 68 8.0 9.7 0.00 0.00 0.00 48 1020.0
20260509154517 11 68 9.7 14.5 0.00 0.00 0.00 46 1020.0
20260509154017 12 68 9.7 11.3 0.00 0.00 0.00 44 1020.1
20260509153519 13 45 8.0 12.9 0.00 0.00 0.00 43 1020.2
20260509153007 12 45 9.7 12.9 0.00 0.00 0.00 43 1020.2
20260509152517 12 45 9.7 14.5 0.00 0.00 0.00 45 1020.1
20260509152017 12 45 11.3 12.9 0.00 0.00 0.00 45 1020.1
20260509151518 12 68 11.3 12.9 0.00 0.00 0.00 45 1020.2
20260509151017 12 45 9.7 12.9 0.00 0.00 0.00 44 1020.3
20260509150517 12 45 9.7 12.9 0.00 0.00 0.00 43 1020.2
20260509150008 12 45 9.7 14.5 0.00 0.00 0.00 43 1020.3
20260509145517 12 45 9.7 11.3 0.00 0.00 0.00 44 1020.3
20260509145017 12 68 9.7 14.5 0.00 0.00 0.00 44 1020.4
20260509144518 12 68 9.7 12.9 0.00 0.00 0.00 44 1020.3
20260509144038 12 68 11.3 14.5 0.00 0.00 0.00 43 1020.5
20260509143517 12 45 11.3 14.5 0.00 0.00 0.00 42 1020.5
20260509143010 13 68 9.7 14.5 0.00 0.00 0.00 42 1020.5
20260509142517 13 68 11.3 14.5 0.00 0.00 0.00 42 1020.4
20260509142059 13 68 11.3 14.5 0.00 0.00 0.00 42 1020.4
20260509141517 13 68 9.7 14.5 0.00 0.00 0.00 42 1020.3
20260509141018 13 68 9.7 12.9 0.00 0.00 0.00 41 1020.3
20260509140700 13 68 11.3 14.5 0.00 0.00 0.00 40 1020.3
20260509140007 14 68 12.9 16.1 0.00 0.00 0.00 39 1020.3
20260509135520 14 68 12.9 16.1 0.00 0.00 0.00 39 1020.3
20260509135017 14 68 14.5 16.1 0.00 0.00 0.00 39 1020.3
20260509134517 14 68 14.5 17.7 0.00 0.00 0.00 40 1020.3
20260509134017 14 68 14.5 16.1 0.00 0.00 0.00 39 1020.2
20260509133517 14 68 14.5 17.7 0.00 0.00 0.00 39 1020.2
20260509133007 14 68 14.5 17.7 0.00 0.00 0.00 39 1020.2
20260509132520 13 68 14.5 16.1 0.00 0.00 0.00 40 1020.1
20260509132017 13 68 12.9 19.3 0.00 0.00 0.00 40 1020.0
20260509131538 13 68 12.9 16.1 0.00 0.00 0.00 40 1020.0
20260509131017 13 68 12.9 16.1 0.00 0.00 0.00 40 1020.0
20260509130517 13 68 9.7 12.9 0.00 0.00 0.00 40 1019.9
20260509130007 14 68 11.3 12.9 0.00 0.00 0.00 39 1019.9
20260509125517 14 68 11.3 12.9 0.00 0.00 0.00 39 1019.9
20260509125019 15 68 12.9 16.1 0.00 0.00 0.00 38 1019.8
20260509124519 14 68 12.9 16.1 0.00 0.00 0.00 39 1019.7
20260509124021 14 68 12.9 16.1 0.00 0.00 0.00 39 1019.8
20260509123519 13 68 12.9 16.1 0.00 0.00 0.00 40 1019.7
20260509123008 13 68 11.3 12.9 0.00 0.00 0.00 40 1019.7
20260509122521 13 68 9.7 14.5 0.00 0.00 0.00 40 1019.6
20260509122019 13 68 9.7 12.9 0.00 0.00 0.00 40 1019.6
20260509121517 14 68 9.7 12.9 0.00 0.00 0.00 39 1019.5
20260509121019 15 68 11.3 12.9 0.00 0.00 0.00 38 1019.5
20260509120519 15 68 11.3 14.5 0.00 0.00 0.00 37 1019.6
20260509120028 15 68 9.7 12.9 0.00 0.00 0.00 37 1019.6
20260509115519 15 68 11.3 14.5 0.00 0.00 0.00 35 1019.5
20260509115019 16 68 12.9 14.5 0.00 0.00 0.00 35 1019.4
20260509114519 16 68 12.9 14.5 0.00 0.00 0.00 34 1019.4
20260509114019 16 68 11.3 12.9 0.00 0.00 0.00 33 1019.4
20260509113540 17 68 9.7 14.5 0.00 0.00 0.00 33 1019.6
20260509113008 17 90 9.7 14.5 0.00 0.00 0.00 32 1019.4
20260509112519 17 90 9.7 14.5 0.00 0.00 0.00 32 1019.4
20260509112019 17 90 11.3 16.1 0.00 0.00 0.00 32 1019.3
20260509111519 17 90 9.7 14.5 0.00 0.00 0.00 32 1019.4
20260509111019 17 90 9.7 14.5 0.00 0.00 0.00 32 1019.4
20260509110519 18 90 9.7 12.9 0.00 0.00 0.00 31 1019.4
20260509110031 18 90 9.7 14.5 0.00 0.00 0.00 30 1019.4
20260509105519 18 90 9.7 12.9 0.00 0.00 0.00 30 1019.4
20260509105019 18 90 11.3 16.1 0.00 0.00 0.00 30 1019.3
20260509104519 18 90 11.3 16.1 0.00 0.00 0.00 30 1019.3
20260509104019 19 90 12.9 17.7 0.00 0.00 0.00 29 1019.3
20260509103519 19 90 11.3 17.7 0.00 0.00 0.00 30 1019.3
20260509103007 19 113 11.3 16.1 0.00 0.00 0.00 30 1019.2
20260509102519 19 90 9.7 16.1 0.00 0.00 0.00 29 1019.3
20260509102021 19 90 11.3 16.1 0.00 0.00 0.00 29 1019.3
20260509101519 20 113 9.7 14.5 0.00 0.00 0.00 28 1019.3
20260509101019 20 90 9.7 14.5 0.00 0.00 0.00 28 1019.2
20260509100519 20 113 11.3 17.7 0.00 0.00 0.00 28 1019.1
20260509100006 20 113 11.3 16.1 0.00 0.00 0.00 28 1019.0
20260509095539 20 113 9.7 16.1 0.00 0.00 0.00 28 1018.9
20260509095018 20 113 9.7 12.9 0.00 0.00 0.00 28 1019.0
20260509094518 20 113 6.4 11.3 0.00 0.00 0.00 28 1019.0
20260509094018 21 113 6.4 11.3 0.00 0.00 0.00 28 1018.9
20260509093519 21 113 4.8 9.7 0.00 0.00 0.00 28 1019.0
20260509093007 21 113 4.8 11.3 0.00 0.00 0.00 28 1018.9
20260509092519 21 113 4.8 11.3 0.00 0.00 0.00 27 1019.0
20260509092018 21 113 6.4 11.3 0.00 0.00 0.00 27 1019.0
20260509091519 22 113 8.0 11.3 0.00 0.00 0.00 27 1018.9
20260509091039 22 113 6.4 12.9 0.00 0.00 0.00 27 1019.0
20260509090518 22 113 4.8 11.3 0.00 0.00 0.00 27 1019.0
20260509090007 22 113 8.0 12.9 0.00 0.00 0.00 27 1018.9
20260509085519 22 113 8.0 14.5 0.00 0.00 0.00 26 1019.0
20260509085019 22 113 8.0 14.5 0.00 0.00 0.00 26 1019.0
20260509084518 22 113 8.0 12.9 0.00 0.00 0.00 26 1018.9
20260509084040 22 113 6.4 14.5 0.00 0.00 0.00 26 1018.9
20260509083518 23 90 11.3 17.7 0.00 0.00 0.00 26 1018.9
20260509083006 23 113 9.7 19.3 0.00 0.00 0.00 26 1018.9
20260509082518 23 90 9.7 14.5 0.00 0.00 0.00 26 1019.0
20260509082018 23 113 9.7 17.7 0.00 0.00 0.00 26 1018.9
20260509081539 23 135 6.4 12.9 0.00 0.00 0.00 26 1018.8
20260509081019 23 113 8.0 16.1 0.00 0.00 0.00 26 1018.7
20260509080518 23 113 9.7 19.3 0.00 0.00 0.00 26 1018.7
20260509080009 23 135 6.4 16.1 0.00 0.00 0.00 26 1018.7
20260509075518 23 135 8.0 16.1 0.00 0.00 0.00 26 1018.7
20260509075019 23 113 8.0 16.1 0.00 0.00 0.00 26 1018.7
20260509074518 23 90 9.7 17.7 0.00 0.00 0.00 26 1018.6
20260509074018 23 113 11.3 17.7 0.00 0.00 0.00 27 1018.6
20260509073518 23 113 8.0 16.1 0.00 0.00 0.00 27 1018.5
20260509073009 23 113 11.3 17.7 0.00 0.00 0.00 26 1018.5
20260509072519 23 113 4.8 14.5 0.00 0.00 0.00 27 1018.5
20260509072018 23 113 8.0 17.7 0.00 0.00 0.00 27 1018.4
20260509071518 23 113 8.0 17.7 0.00 0.00 0.00 26 1018.4
20260509071018 23 68 12.9 19.3 0.00 0.00 0.00 24 1018.5
20260509070518 23 113 9.7 19.3 0.00 0.00 0.00 25 1018.4
20260509070006 23 113 11.3 19.3 0.00 0.00 0.00 26 1018.4
20260509065539 23 90 9.7 19.3 0.00 0.00 0.00 26 1018.4
20260509065018 23 90 8.0 14.5 0.00 0.00 0.00 25 1018.4
20260509064519 23 90 14.5 29.0 0.00 0.00 0.00 25 1018.4
20260509064018 24 90 8.0 19.3 0.00 0.00 0.00 25 1018.5
20260509063518 23 68 8.0 16.1 0.00 0.00 0.00 26 1018.4
20260509063008 23 68 11.3 22.5 0.00 0.00 0.00 26 1018.5
20260509062519 23 45 9.7 19.3 0.00 0.00 0.00 27 1018.4
20260509062018 23 68 11.3 24.1 0.00 0.00 0.00 26 1018.4
20260509061539 23 68 16.1 29.0 0.00 0.00 0.00 26 1018.5
20260509061018 23 68 16.1 24.1 0.00 0.00 0.00 26 1018.4
20260509060518 23 90 11.3 16.1 0.00 0.00 0.00 26 1018.3
20260509060007 23 90 12.9 22.5 0.00 0.00 0.00 26 1018.3
20260509055518 23 68 11.3 24.1 0.00 0.00 0.00 26 1018.3
20260509055039 23 90 9.7 17.7 0.00 0.00 0.00 27 1018.4
20260509054518 23 68 17.7 27.4 0.00 0.00 0.00 27 1018.4
20260509054018 23 68 12.9 24.1 0.00 0.00 0.00 26 1018.4
20260509053539 23 45 9.7 19.3 0.00 0.00 0.00 27 1018.5
20260509053006 23 23 6.4 14.5 0.00 0.00 0.00 27 1018.5
20260509052518 23 45 14.5 22.5 0.00 0.00 0.00 27 1018.5
20260509052018 23 68 16.1 27.4 0.00 0.00 0.00 28 1018.6
20260509051518 23 68 11.3 22.5 0.00 0.00 0.00 28 1018.7
20260509051018 23 45 16.1 25.7 0.00 0.00 0.00 28 1018.9
20260509050518 23 68 16.1 22.5 0.00 0.00 0.00 28 1018.9
20260509050006 23 68 16.1 24.1 0.00 0.00 0.00 28 1018.9
20260509045518 23 45 17.7 25.7 0.00 0.00 0.00 28 1018.9